sat.trackr.live / text

‹ back to catalog

HULIANWANG DIGUI-42

NORAD 65045 · 2025-162C

PAYLOAD ACTIVE UNKNOWN

§ Identity

Operator
Country
PRC
Launch date
2025-07-30
Launch site
WSC
Launch vehicle
Mass (kg)
RCS (m²)

External: N2YO · Heavens-Above · Gunter

§ Orbital elements

Epoch: 2026-05-25T01:39:46.516896Z

Period
108.33 min
Inclination
49.9986°
Eccentricity
0.0000487
Mean motion
13.29324250 rev/d
Perigee alt
1,148.9 km
Apogee alt
1,149.7 km
Semi-major
7,527.5 km
B*
1.1415e-4
RAAN
348.6544°
Arg perigee
41.7040°
Mean anomaly
318.3869°
Rev number
4,028

§ Raw data

HULIANWANG DIGUI-421 65045U 25162C   26145.06928839 -.00000071  00000+0  11415-3 0  99922 65045  49.9986 348.6544 0000487  41.7040 318.3869 13.29324250 40289

JSON: /api/v1/satellites/65045 · /tle

For live sub-satellite position, see the globe view (requires WebGL).

§ Visibility from observer

Set your observer location to see the next 7 days of passes ≥ 10°. The values pass through the URL so the page stays shareable.

No JS? Fill the form by hand. The geolocation button needs JavaScript.